Weather History for Santa Monica, CA

Change the Weather History Date:

Saturday, November 16, 2013

  Actual Average Record
Temperature  
Mean Temperature 60 °F -  
Max Temperature 64 °F 71 °F 89 °F (1976)
Min Temperature 57 °F 51 °F 38 °F (1964)
Degree Days  
Heating Degree Days 4    
Growing Degree Days 10 (Base 50)    
Moisture  
Dew Point 52 °F    
Average Humidity 74    
Maximum Humidity 88    
Minimum Humidity 58    
Precipitation  
Precipitation 0.00 in - - ()
Sea Level Pressure  
Sea Level Pressure 29.84 in    
Wind  
Wind Speed 2 mph (SSW)    
Max Wind Speed 10 mph    
Max Gust Speed -    
Visibility 10 miles    
Events      
Averages and records for this station are not official NWS values.
T = Trace of Precipitation, MM = Missing Value Source: NWS Daily Summary

Daily Weather History Graph

Daily Weather History Graph

Search for Another Location

Airport:

Trip Planner

Search our weather history database for the weather conditions in past years. The results will help you decide how hot, cold, wet, or windy it might be!

Date:

Astronomy

Nov. 16, 2013 Rise Set
Actual Time 6:27 AM PST 4:49 PM PST
Civil Twilight 6:00 AM PST 5:16 PM PST
Nautical Twilight 5:30 AM PST 5:46 PM PST
Astronomical Twilight 5:00 AM PST 6:15 PM PST
Moon 4:26 PM PST (11/16) 5:30 AM PST (11/16)
Length of Visible Light 11h 15m
Length of Day
10h 21m
Waxing Gibbous, 99% of the Moon is Illuminated
Nov 16
Waxing Gibbous
Nov 17
Full
Nov 25
Last Quarter
Dec 2
New
Dec 9
First Quarter

Hourly Weather History & Observations

Time (PST) Temp. Dew Point Humidity Pressure Visibility Wind Dir Wind Speed Gust Speed Precip Events Conditions
12:51 AM 61.0 °F 55.0 °F 81% 29.76 in 10.0 mi Calm Calm - N/A   Overcast
1:51 AM 60.1 °F 54.0 °F 80% 29.76 in 10.0 mi Calm Calm - N/A   Overcast
2:51 AM 57.9 °F 54.0 °F 87% 29.76 in 9.0 mi Calm Calm - N/A   Overcast
3:51 AM 60.1 °F 54.0 °F 80% 29.78 in 10.0 mi Calm Calm - N/A   Overcast
4:16 AM 60.8 °F 53.6 °F 77% 29.79 in 10.0 mi Calm Calm - N/A   Overcast
4:26 AM 60.8 °F 53.6 °F 77% 29.78 in 10.0 mi Calm Calm - N/A   Overcast
4:34 AM 59.0 °F 53.6 °F 82% 29.78 in 10.0 mi SSE 3.5 mph - N/A   Overcast
4:41 AM 59.0 °F 55.4 °F 88% 29.78 in 10.0 mi ESE 3.5 mph - N/A   Overcast
4:51 AM 57.9 °F 54.0 °F 87% 29.78 in 10.0 mi Calm Calm - N/A   Overcast
5:10 AM 59.0 °F 55.4 °F 88% 29.78 in 10.0 mi Calm Calm - N/A   Overcast
5:40 AM 59.0 °F 55.4 °F 88% 29.80 in 10.0 mi Calm Calm - N/A   Overcast
5:51 AM 59.0 °F 55.0 °F 87% 29.79 in 10.0 mi Calm Calm - N/A   Overcast
6:01 AM 59.0 °F 55.4 °F 88% 29.80 in 10.0 mi ESE 3.5 mph - N/A   Overcast
6:11 AM 60.8 °F 53.6 °F 77% 29.80 in 10.0 mi Calm Calm - N/A   Overcast
6:36 AM 60.8 °F 53.6 °F 77% 29.81 in 10.0 mi Calm Calm - N/A   Overcast
6:47 AM 60.8 °F 53.6 °F 77% 29.82 in 10.0 mi Calm Calm - N/A   Overcast
6:51 AM 60.1 °F 54.0 °F 80% 29.82 in 10.0 mi Calm Calm - N/A   Overcast
7:51 AM 61.0 °F 53.1 °F 75% 29.85 in 10.0 mi SSW 3.5 mph - N/A   Overcast
8:51 AM 62.1 °F 53.1 °F 72% 29.87 in 10.0 mi Calm Calm - N/A   Overcast
9:51 AM 62.1 °F 53.1 °F 72% 29.88 in 10.0 mi SW 4.6 mph - N/A   Overcast
10:18 AM 62.6 °F 51.8 °F 68% 29.88 in 10.0 mi SSW 5.8 mph - N/A   Mostly Cloudy
10:51 AM 63.0 °F 52.0 °F 67% 29.88 in 10.0 mi SW 6.9 mph - N/A   Mostly Cloudy
11:51 AM 64.9 °F 50.0 °F 58% 29.86 in 10.0 mi SSW 5.8 mph - N/A   Scattered Clouds
12:51 PM 64.0 °F 48.9 °F 58% 29.84 in 10.0 mi WSW 6.9 mph - N/A   Mostly Cloudy
1:51 PM 63.0 °F 48.0 °F 58% 29.84 in 10.0 mi WSW 10.4 mph - N/A   Overcast
2:51 PM 63.0 °F 48.9 °F 60% 29.84 in 10.0 mi SW 8.1 mph - N/A   Mostly Cloudy
3:51 PM 64.0 °F 50.0 °F 60% 29.85 in 10.0 mi SW 8.1 mph - N/A   Overcast
4:05 PM 62.6 °F 50.0 °F 63% 29.85 in 10.0 mi SW 8.1 mph - N/A   Mostly Cloudy
4:51 PM 62.1 °F 50.0 °F 65% 29.86 in 10.0 mi WSW 4.6 mph - N/A   Mostly Cloudy
5:51 PM 61.0 °F 50.0 °F 67% 29.88 in 10.0 mi Calm Calm - N/A   Mostly Cloudy
6:51 PM 61.0 °F 50.0 °F 67% 29.89 in 10.0 mi Calm Calm - N/A   Mostly Cloudy
7:51 PM 61.0 °F 50.0 °F 67% 29.91 in 10.0 mi Calm Calm - N/A   Mostly Cloudy
8:51 PM 59.0 °F 50.0 °F 72% 29.91 in 10.0 mi Calm Calm - N/A   Clear
9:22 PM 59.0 °F 50.0 °F 72% 29.92 in 10.0 mi Calm Calm - N/A   Mostly Cloudy
9:47 PM 59.0 °F 50.0 °F 72% 29.93 in 10.0 mi Calm Calm - N/A   Scattered Clouds
9:51 PM 59.0 °F 50.0 °F 72% 29.93 in 10.0 mi Calm Calm - N/A   Scattered Clouds
10:51 PM 57.9 °F 50.0 °F 75% 29.94 in 10.0 mi Calm Calm - N/A   Clear
11:51 PM 57.0 °F 48.9 °F 74% 29.94 in 10.0 mi Calm Calm - N/A   Partly Cloudy